FENGYUN 1C DEB, 29751

Orbit data source: Space-Track

FENGYUN 1C DEB, 29751 is space debris in SSO originally from a launch on Mon, 10 May 1999 UTC launched from the Taiyaun Space Center, China (TSC). Fengyun 1C debris stems from the Chinese weather satellite Fengyun-1C, which was intentionally destroyed by a Chinese anti-satellite missile in 2007. This event dramatically increased the amount of space debris, with thousands of trackable fragments posing hazards to satellites and human spaceflight. The Fengyun 1C debris cloud has become a focal point in discussions about space sustainability and the need for international regulations to prevent the creation of new debris.

Loading next visibility...
Identifier
29751, 1999-025AR
Orbit
SSO
Country
Flag of CNCN / PRC
Related business
Manufacturer
Unknown
Mission
Spacecraft
Bus & Motor
Unknown
Mass
Unknown
Launch date (UTC)
1999-05-10 (26 years ago)
Launch vehicle
Unknown
Launch site
Taiyaun Space Center, China (TSC)
Object type
Payload
Rocket body
Debris
Shape & HBR
Unknown shape, 0.1 m
Radar Cross Section
Small (<0.1 m²)

Expand to show TLE details & history
Last TLE update: 21 hours ago

TLE from 21 hours ago
0 FENGYUN 1C DEB
1 29751U 99025AR  25295.07708536  .00000564  00000-0  25654-3 0  9998
2 29751  98.5486 324.4225 0088099 290.3365  94.0445 14.23566947973383
Epoch: 2025-10-22T01:51Z
TLE epoch observation values (Epoch: 2025-10-22T01:51:00.175Z)
Latitude
25.11526°
Longitude
-98.10326°
Altitude
821.387 km
Speed
7.442 km/s
True Right ascension
21h 21m 36s
True Declination
24° 59' 04"
Sunlit
Object was in daylight at epoch
Visualization orbit readout
Latitude
Unknown
Longitude
Unknown
Altitude
Unknown
Speed
Unknown
Apparent Right ascension
Unknown
Apparent Declination
Unknown
Sunlit
N/A
Visualization observer readout
Local Sidereal Time
17:40:48
Azimuth
Unknown
Elevation
Unknown
Doppler factor
Unknown
Orbital elements
Apogee altitude
873.792 km
Perigee altitude
747.13 km
Semi-major axis
7,188.598 km
Eccentricity
0.00881
Inclination
98.5486°
RAAN
324.4225°
Arg. of periapsis
290.3365°
True anomaly
95.05069°
Mean anomaly
94.0445°
Eccentric anomaly
94.54768°
Mean motion
3.56104 °/min
Orbital period
101.09 mins
BSTAR
0.00025654
Loading maneuver chart data...
Computing Atmospheric mass density...

Documentation

Showing up to 5 results
|